Wind_Speed
17 11 7 6 8 13 13 10 10 9 11 10 17 20 25 22 18 16 15 14 11 11 11 12 12 13 14 12 15 14 13 13 10 10 14 13 14 13 13 15 17 17 16 17
18 13 13 14 9 11 11 4 7 3 9 12 17 18 19 22 20 20 19 20 16 14 12 11 10 9 8 7 8 10 9 8 7 7 8 10 11 11 12 14 16 18 16 18
16 8 6 8 14 16 10 8 9 8 13 9 12 22 29 27 26 27 26 25 22 18 14 11 8 7 6 6 7 8 7 5 6 6 7 9 10 12 14 16 17 18 19 19
6 7 12 5 2 15 18 12 15 10 11 16 24 39 38 34 35 32 27 27 24 20 17 13 10 8 8 7 7 6 5 5 5 6 7 9 10 12 14 15 15 16 16 17
4 8 3 5 6 8 9 12 15 15 16 17 17 16 18 30 33 36 32 27 23 21 18 15 14 11 8 8 8 7 7 7 7 9 11 13 14 16 17 17 17 18 19 20
4 6 10 9 7 7 8 12 13 18 15 16 19 12 13 37 37 31 29 27 23 20 17 15 13 12 10 8 7 6 6 7 8 9 11 14 16 18 20 22 23 23 24 24
5 4 5 2 4 8 7 10 1 7 14 19 17 17 23 24 29 32 29 23 23 18 15 12 12 12 12 12 10 8 8 7 10 13 16 18 20 22 23 23 25 26 27 29
3 5 9 2 4 7 4 4 5 6 11 18 16 8 12 24 36 32 26 23 21 17 14 13 13 12 11 11 8 6 7 12 16 18 19 20 22 24 27 28 27 27 29 29
6 1 2 5 11 15 15 10 7 7 9 18 15 16 18 24 28 28 25 22 18 16 14 13 14 13 11 8 7 8 11 16 19 20 22 25 28 30 31 30 29 28 24 25
2 2 3 3 5 5 4 6 7 8 14 18 18 19 23 26 27 25 21 18 16 15 17 17 18 15 13 10 9 10 16 21 22 25 27 30 32 33 32 29 24 23 25 26
2 4 2 6 8 10 11 13 13 13 15 19 24 25 27 27 24 20 15 14 16 18 16 15 14 14 13 12 12 14 18 22 25 28 33 34 31 29 29 28 26 24 24 24
2 1 2 2 6 12 12 15 17 23 24 22 19 20 20 18 12 11 13 12 17 16 19 19 15 17 16 15 15 20 23 25 28 29 29 28 27 27 27 27 26 27 27 27
1 3 2 6 7 9 11 11 14 17 18 18 18 18 16 11 7 9 12 20 21 18 19 15 15 15 15 15 21 25 25 26 26 26 26 25 25 23 25 28 31 34 34 35
3 4 2 6 4 11 10 8 10 12 7 8 12 13 12 13 14 18 14 13 14 16 14 13 12 14 18 22 23 24 24 24 23 23 24 22 22 24 25 28 32 37 40 43
3 2 4 5 9 10 8 9 10 6 3 5 6 7 9 10 10 12 12 13 12 12 11 12 15 16 19 22 23 21 20 21 22 21 22 26 28 29 29 31 32 33 35 38
1 2 2 3 4 6 7 10 8 8 6 5 6 6 6 7 9 10 9 8 7 9 11 13 15 16 19 20 20 19 19 20 22 24 26 27 28 29 30 30 31 32 30 29
6 4 5 5 6 7 8 8 8 6 5 4 4 4 5 8 8 6 4 5 7 8 11 15 17 17 18 19 19 19 20 22 24 27 27 28 30 31 30 32 30 34 36 35
9 12 14 12 7 6 10 6 3 4 6 7 9 8 6 3 1 3 6 8 12 14 15 17 17 18 17 17 17 18 21 25 28 31 32 32 32 33 30 28 29 32 32 35
8 6 7 7 7 9 8 7 8 9 11 9 6 2 1 4 5 6 8 11 13 14 13 15 15 15 14 14 16 20 23 27 29 30 30 32 30 27 26 26 28 29 32 34
10 6 4 6 9 12 16 15 14 11 6 4 3 1 2 4 6 9 10 9 10 12 13 13 11 9 11 14 17 21 26 27 28 29 29 26 24 24 24 24 26 28 30 32
10 13 15 16 14 13 10 8 9 8 5 3 2 2 2 5 8 9 8 5 10 12 8 7 6 9 13 16 20 24 26 29 29 28 25 22 21 21 21 23 26 28 30 31
5 4 5 7 6 8 9 8 6 3 2 2 2 3 4 6 7 7 7 9 11 7 6 6 8 11 15 18 21 24 29 29 27 23 20 19 19 20 21 23 25 26 27 27
3 4 5 6 6 7 5 2 2 1 2 2 4 7 7 8 9 9 7 9 7 6 7 7 9 12 15 18 22 27 29 30 24 20 18 17 17 17 20 22 23 22 22 22
9 8 6 5 3 1 2 4 5 6 6 6 7 9 10 10 10 9 9 9 9 8 6 7 9 13 15 18 25 28 28 27 22 18 16 15 14 16 18 19 21 22 23 22
5 6 4 1 2 5 9 10 9 9 8 8 9 10 11 10 10 9 9 9 9 9 6 8 11 10 14 18 21 24 24 23 24 22 19 17 16 16 17 20 23 25 25 26
5 7 7 6 5 6 6 5 5 7 8 10 10 10 9 8 7 7 8 9 10 7 6 9 9 9 11 14 17 18 20 22 23 25 26 25 23 22 22 22 24 26 27 26
4 0 2 2 4 8 11 10 9 10 11 10 9 9 9 10 12 9 8 8 5 4 4 6 8 9 9 11 14 17 18 18 20 20 22 24 24 24 24 23 24 24 26 28
Wind_Direction
235 232 204 254 193 184 203 206 210 217 213 239 209 202 193 186 182 186 185 183 178 162 158 164 175 188 197 204 226 244 242 246 256 270 285 287 289 274 264 272 269 276 283 280
233 227 220 240 239 202 212 186 266 217 234 239 230 197 199 198 190 196 195 192 186 182 178 177 184 200 222 229 234 223 224 223 234 246 269 282 284 281 276 275 275 279 283 278
228 216 179 246 218 200 210 195 218 205 228 177 190 200 201 198 196 201 199 194 192 184 186 196 202 200 204 192 180 178 187 206 227 255 275 284 291 292 291 288 283 278 274 268
215 159 227 249 230 208 209 222 211 245 247 215 211 209 204 198 197 202 202 199 194 187 187 186 186 187 188 195 187 193 200 216 243 257 271 283 291 295 297 295 292 286 280 279
201 205 292 220 184 184 180 231 220 228 242 247 236 204 209 204 202 201 200 202 197 192 192 193 195 199 204 195 197 209 225 246 267 278 289 295 297 300 300 298 294 289 286 283
162 215 225 221 166 184 208 267 187 208 223 207 167 184 220 205 199 196 202 204 198 193 195 202 205 205 211 221 224 228 243 257 270 283 293 298 298 297 293 290 288 286 283 281
183 222 269 259 166 192 213 268 274 242 240 199 195 208 215 184 182 198 201 202 199 197 202 210 214 218 221 220 221 232 241 262 290 302 306 309 311 311 307 299 293 289 287 286
146 201 242 65 151 213 0 301 255 232 224 207 201 200 166 176 183 189 186 180 189 195 198 202 206 208 203 205 206 229 281 301 301 302 306 309 309 308 306 304 301 298 296 293
215 197 11 282 274 283 296 275 261 195 196 181 174 166 161 161 166 168 172 172 175 180 187 196 206 198 206 215 250 283 304 312 306 302 303 303 304 304 304 301 298 299 297 295
211 164 260 303 292 289 283 261 211 152 153 171 162 148 144 144 147 147 161 169 179 195 204 209 206 206 218 239 267 305 315 305 300 298 299 300 301 302 300 297 296 296 296 296
266 271 273 75 79 99 96 103 126 140 143 136 137 143 149 150 151 154 165 188 200 203 207 211 220 231 246 256 274 289 291 291 293 297 300 300 300 299 298 297 298 297 297 295
77 359 44 65 101 119 115 114 114 121 126 128 124 135 140 140 150 179 193 206 206 214 219 207 221 246 253 267 281 285 286 290 296 299 299 301 303 303 300 298 296 294 293 292
341 155 157 140 127 115 109 119 125 132 140 134 141 144 149 165 191 227 226 214 208 211 215 223 233 249 264 274 284 285 293 300 301 300 299 299 300 301 301 302 303 303 301 298
130 114 74 158 149 133 127 134 144 125 132 167 156 159 182 205 219 219 222 212 206 214 227 234 248 257 273 281 287 296 300 299 299 299 298 297 296 298 300 300 301 303 303 301
129 269 292 210 183 179 182 172 170 170 188 191 197 198 207 231 229 220 215 208 209 218 235 253 267 280 288 294 296 295 295 298 299 300 299 298 299 300 299 298 296 296 298 299
11 304 294 243 225 224 210 204 207 223 224 208 218 222 225 206 196 194 198 208 230 257 268 280 292 298 293 292 292 296 298 300 301 302 302 301 300 298 297 297 297 298 300 299
295 298 284 290 274 258 232 220 222 219 209 218 192 175 179 160 160 170 210 259 272 279 294 301 300 295 295 294 296 297 300 305 308 307 304 302 300 298 297 298 298 302 304 305
292 276 279 274 269 277 227 211 219 186 155 152 146 139 133 131 192 279 282 287 295 298 301 295 294 299 300 297 296 300 308 313 312 311 308 305 302 301 302 302 305 308 309 312
347 306 291 290 258 234 212 198 160 145 130 130 127 129 291 300 304 307 305 301 299 299 296 300 303 303 303 302 311 315 317 317 316 313 310 311 312 309 308 311 310 310 313 316
19 30 59 109 129 134 129 127 128 126 126 125 102 55 356 330 319 306 304 309 306 309 308 307 309 314 313 314 320 327 327 323 319 319 319 317 315 315 315 318 319 322 322 323
90 101 109 116 119 117 119 130 134 131 121 86 38 344 335 334 326 322 322 334 331 333 332 328 315 310 321 334 335 333 333 336 336 331 325 323 323 323 328 333 331 330 329 329
162 138 135 129 106 120 128 129 122 91 26 344 303 270 299 324 331 328 316 330 335 336 321 305 313 331 341 339 341 342 345 344 339 336 332 332 332 334 340 341 340 339 339 341
189 156 125 138 123 131 130 135 315 256 277 272 278 273 289 302 304 295 291 317 312 291 283 300 326 343 344 350 355 357 350 352 347 344 345 342 342 345 353 353 352 356 1 3
93 108 117 123 126 102 280 274 253 250 256 255 269 279 290 293 292 277 278 292 283 260 266 309 330 344 348 2 7 357 359 1 357 357 358 358 0 6 10 17 23 27 29 31
110 113 110 109 282 282 288 287 275 258 252 259 277 290 290 289 286 278 280 286 277 253 286 317 323 353 1 12 7 1 7 14 23 28 30 31 33 34 39 44 46 47 48 48
114 96 67 53 24 349 325 300 281 277 279 285 286 278 274 277 267 278 286 283 259 260 293 314 359 9 6 4 14 12 17 26 29 35 41 47 50 54 56 56 56 56 56 55
143 172 354 335 328 334 320 306 292 284 279 271 260 257 259 270 277 284 286 248 232 282 20 50 36 20 6 11 19 24 30 33 39 45 48 50 52 53 55 56 58 59 61 62
Height
1495 1495 1501 1497 1500 1507 1508 1498 1511 1501 1509 1494 1497 1499 1502 1509 1515 1519 1521 1523 1524 1524 1525 1527 1529 1531 1535 1537 1540 1541 1542 1544 1546 1546 1546 1546 1545 1545 1546 1546 1547 1546 1545 1545
1494 1491 1498 1499 1494 1499 1500 1507 1504 1503 1503 1489 1491 1500 1505 1506 1512 1516 1518 1521 1523 1524 1526 1528 1529 1532 1534 1536 1537 1538 1539 1541 1542 1543 1543 1543 1543 1543 1543 1543 1542 1541 1541 1542
1496 1490 1499 1506 1493 1492 1491 1494 1490 1502 1486 1486 1490 1492 1493 1500 1505 1509 1513 1517 1521 1524 1526 1528 1529 1531 1533 1534 1536 1537 1539 1540 1540 1541 1541 1541 1541 1541 1540 1538 1538 1537 1537 1537
1487 1496 1513 1474 1474 1474 1481 1480 1483 1480 1479 1479 1475 1474 1480 1490 1495 1502 1509 1514 1518 1522 1525 1527 1529 1531 1532 1533 1534 1535 1536 1537 1538 1539 1539 1539 1538 1537 1536 1535 1534 1534 1533 1532
1493 1491 1483 1473 1475 1476 1480 1474 1472 1475 1473 1473 1476 1479 1484 1485 1490 1497 1504 1511 1515 1520 1523 1526 1528 1531 1534 1535 1535 1536 1537 1538 1538 1537 1537 1536 1535 1533 1533 1531 1530 1529 1529 1528
1496 1489 1492 1462 1463 1466 1468 1471 1464 1465 1465 1469 1475 1478 1470 1473 1482 1492 1500 1506 1512 1516 1521 1525 1528 1530 1534 1535 1537 1537 1537 1537 1537 1537 1537 1536 1534 1532 1530 1529 1527 1526 1525 1523
1481 1479 1468 1460 1462 1465 1476 1467 1456 1459 1462 1466 1466 1458 1462 1470 1478 1489 1495 1503 1510 1514 1519 1523 1526 1528 1529 1529 1531 1533 1534 1535 1536 1535 1533 1532 1529 1527 1526 1523 1521 1518 1516 1515
1483 1481 1482 1464 1465 1466 1459 1454 1454 1454 1458 1463 1465 1466 1469 1471 1476 1484 1492 1499 1507 1512 1517 1521 1524 1527 1528 1530 1530 1530 1531 1532 1531 1530 1527 1526 1524 1521 1518 1515 1513 1511 1508 1505
1467 1462 1464 1464 1463 1459 1459 1457 1456 1452 1455 1460 1463 1465 1469 1473 1476 1484 1493 1499 1507 1512 1516 1520 1524 1526 1528 1529 1529 1529 1528 1527 1527 1526 1523 1519 1517 1514 1511 1509 1505 1503 1501 1498
1466 1462 1462 1462 1459 1458 1457 1456 1457 1456 1457 1462 1463 1468 1473 1478 1484 1488 1498 1502 1507 1511 1514 1516 1520 1523 1525 1523 1525 1523 1523 1523 1520 1519 1517 1514 1511 1507 1503 1501 1498 1496 1494 1491
1463 1460 1460 1461 1460 1460 1461 1460 1461 1461 1462 1465 1468 1473 1476 1481 1487 1493 1497 1501 1505 1508 1513 1517 1521 1522 1521 1524 1522 1519 1517 1517 1515 1511 1510 1506 1502 1499 1497 1494 1492 1489 1486 1484
1459 1461 1461 1463 1464 1464 1465 1466 1466 1467 1470 1472 1476 1479 1484 1490 1494 1497 1499 1502 1503 1506 1508 1506 1510 1519 1521 1520 1516 1515 1512 1511 1508 1506 1503 1500 1495 1490 1489 1487 1486 1485 1481 1477
1462 1461 1462 1463 1465 1466 1468 1470 1471 1473 1476 1477 1479 1482 1487 1491 1495 1501 1499 1497 1496 1500 1506 1507 1511 1515 1517 1514 1512 1511 1507 1505 1502 1499 1497 1493 1490 1487 1482 1478 1475 1473 1472 1469
1462 1463 1464 1465 1466 1467 1469 1471 1473 1473 1478 1481 1481 1481 1485 1487 1488 1493 1498 1497 1498 1503 1507 1509 1510 1512 1511 1508 1506 1504 1501 1499 1495 1492 1490 1487 1486 1481 1477 1473 1468 1462 1461 1456
1464 1464 1464 1465 1466 1468 1469 1471 1472 1474 1477 1479 1481 1483 1486 1488 1490 1493 1496 1497 1500 1503 1505 1505 1506 1506 1504 1502 1501 1498 1496 1493 1491 1487 1484 1482 1478 1473 1469 1465 1460 1454 1449 1444
1464 1465 1465 1466 1466 1467 1469 1470 1472 1474 1476 1478 1480 1483 1485 1487 1490 1493 1495 1498 1500 1501 1502 1501 1500 1500 1499 1497 1494 1492 1489 1487 1484 1481 1478 1476 1472 1467 1462 1456 1450 1445 1439 1434
1463 1464 1465 1466 1467 1467 1468 1470 1472 1474 1476 1478 1480 1483 1485 1487 1490 1492 1494 1495 1497 1498 1498 1497 1496 1494 1492 1490 1488 1486 1484 1481 1477 1475 1472 1468 1462 1457 1452 1445 1440 1435 1429 1425
1461 1462 1463 1464 1466 1467 1468 1471 1473 1476 1476 1478 1481 1484 1487 1489 1490 1492 1492 1493 1494 1494 1494 1492 1491 1489 1487 1485 1484 1481 1479 1476 1473 1469 1464 1458 1452 1447 1441 1436 1431 1426 1420 1415
1460 1459 1459 1461 1463 1464 1466 1469 1473 1475 1477 1481 1483 1485 1487 1489 1490 1490 1490 1491 1491 1490 1489 1487 1486 1485 1483 1482 1480 1477 1474 1470 1466 1460 1454 1447 1442 1437 1433 1428 1423 1418 1413 1406
1460 1459 1459 1460 1464 1466 1467 1471 1474 1477 1479 1481 1483 1485 1487 1487 1488 1488 1488 1489 1487 1486 1484 1483 1482 1481 1480 1478 1476 1473 1469 1463 1457 1451 1444 1439 1435 1430 1426 1422 1417 1412 1405 1399
1465 1465 1465 1467 1470 1470 1471 1474 1476 1479 1481 1482 1483 1484 1485 1486 1486 1486 1485 1486 1485 1483 1482 1481 1480 1479 1478 1476 1472 1468 1463 1457 1449 1443 1437 1433 1428 1424 1421 1417 1412 1406 1399 1392
1467 1468 1469 1470 1471 1472 1474 1476 1477 1478 1479 1480 1481 1482 1484 1484 1484 1484 1484 1484 1483 1481 1480 1479 1478 1478 1476 1473 1469 1464 1457 1450 1444 1438 1433 1429 1425 1422 1418 1413 1407 1402 1395 1388
1467 1468 1470 1471 1472 1473 1475 1476 1477 1478 1479 1480 1480 1481 1482 1482 1482 1482 1482 1481 1481 1480 1479 1478 1477 1475 1473 1470 1466 1460 1454 1446 1440 1435 1430 1427 1424 1420 1416 1411 1406 1400 1393 1387
1468 1469 1470 1471 1472 1473 1475 1475 1476 1476 1476 1477 1478 1478 1479 1479 1479 1479 1479 1479 1478 1477 1476 1475 1475 1473 1471 1468 1463 1459 1452 1445 1438 1433 1429 1426 1423 1420 1416 1412 1407 1401 1395 1390
1471 1471 1472 1472 1473 1473 1473 1472 1472 1472 1473 1475 1475 1475 1476 1477 1477 1477 1476 1476 1475 1475 1474 1474 1472 1470 1469 1466 1463 1458 1453 1446 1440 1435 1430 1427 1423 1421 1418 1414 1410 1405 1400 1395
1472 1473 1473 1473 1473 1473 1472 1472 1471 1471 1472 1473 1473 1473 1474 1474 1474 1474 1474 1474 1473 1473 1472 1471 1471 1470 1468 1466 1463 1460 1455 1450 1445 1440 1435 1431 1427 1424 1422 1419 1415 1412 1408 1404
1473 1473 1472 1472 1472 1471 1470 1469 1469 1469 1469 1469 1470 1470 1471 1471 1472 1472 1472 1472 1472 1473 1473 1472 1470 1470 1468 1466 1464 1461 1457 1454 1450 1446 1443 1439 1436 1433 1430 1426 1423 1419 1415 1412